[[{"header":{"parameterUnit":"m.s-1","parameterCategory":2,"la1":30.2991,"la2":30.254,"lo1":-89.0895,"lo2":-89.0444,"dy":0.0017,"dx":0.0017,"nx":28,"ny":28,"refTime":"2025-07-26T21:00:00:Z","depth":"0","parameterNumber":2,"parameterNumberName":"U-component_of_CURRENTS"},"data":[0,0,0,0,0,0,0,0,0,0,0,0,0,0,0,0,0,0,0,0,0,0,0,0,0,0,0,0,0,0,0,0,0,0,0,0,0,0,0,0,0,0,0,0,0,0,0,0,0,0,0,0,0,0,0,0,0,0,0.3342,0.3343,0,0.3405,0.3405,0.3405,0.3397,0.3396,0.3395,0.3395,0.3437,0.3439,0.344,0,0,0,0,0,0,0,0,0,0,0,0,0,0.3287,0.3287,0.3342,0.3343,0.3344,0.3404,0.3405,0.3406,0.3397,0.3396,0.3395,0.3394,0.3436,0.3438,0.3441,0,0,0,0,0,0,0,0,0,0,0,0,0,0.3323,0.3287,0.3342,0.3349,0.3351,0.3404,0.3405,0.3406,0.3397,0.3396,0.3395,0.3394,0.3436,0.3438,0.3441,0.3481,0,0,0.3449,0.3451,0,0,0,0,0,0,0,0,0.3321,0.3325,0.3347,0.3349,0.3351,0.3394,0.3401,0.3431,0.3397,0.3376,0.3395,0.3393,0.3424,0.3427,0.3438,0.3483,0.3484,0.345,0.3451,0.3452,0.3453,0,0,0,0,0,0,0,0.3319,0.3323,0.3364,0.3349,0.3351,0.3375,0.3377,0.3407,0.3403,0.3378,0.3378,0.3391,0.3424,0.3435,0.3438,0.3485,0.3449,0.3452,0.3454,0.3455,0.3611,0.3613,0,0,0,0,0,0,0.3315,0.332,0.3362,0.3366,0.3336,0.3376,0.3379,0.3379,0.3403,0.3407,0.3392,0.339,0.3431,0.3435,0.344,0.3537,0.3452,0.3455,0.3457,0.3608,0.3611,0.3614,0,0,0,0,0,0,0.3313,0.3317,0.3359,0.3348,0.3355,0.3378,0.3378,0.3381,0.3396,0.3414,0.3416,0.3405,0.343,0.3436,0.3481,0.3536,0.3456,0.3459,0.3605,0.3609,0.3613,0.37,0,0,0,0,0,0,0.3311,0.3316,0.3315,0.3347,0.3355,0.3404,0.338,0.3383,0.3407,0.3405,0.3426,0.3429,0.343,0.3477,0.3484,0.3539,0.3461,0.3602,0.3607,0.3611,0.3694,0.3706,0.3717,0,0,0,0,0,0.3308,0.3315,0.3314,0.332,0.3353,0.3405,0.3413,0.3423,0.3409,0.3429,0.3442,0.3428,0.3511,0.3481,0.3488,0.3546,0.36,0.3606,0.3611,0.3689,0.3704,0.3717,0,0,0,0,0,0,0.3299,0.3317,0.3316,0.3329,0.337,0.3405,0.3424,0.3432,0.3458,0.3454,0.3457,0.3462,0.3529,0.3523,0.3489,0.3605,0.3556,0.3563,0.3612,0.3627,0.3638,0.3636,0.3463,0,0,0,0,0,0.3296,0.3298,0.3335,0.3349,0.3368,0.3397,0.3418,0.3432,0.346,0.347,0.3486,0.3512,0.356,0.3578,0.3613,0.367,0.3708,0.3713,0.3724,0.3734,0.3739,0.3858,0.3881,0.3632,0.3632,0.3632,0,0,0.3296,0.3308,0.3309,0.3347,0.3373,0.3417,0.3406,0.3449,0.3487,0.3472,0.3524,0.3555,0.3585,0.3656,0.3685,0.3656,0.3829,0.3741,0.3749,0.3749,0.3867,0.3891,0.3913,0.3636,0.3636,0.3635,0,0,0.3317,0.3312,0.333,0.3365,0.3413,0.3437,0.3452,0.3499,0.3518,0.3578,0.3587,0.3647,0.37,0.3744,0.377,0.3865,0.389,0.388,0.3933,0.405,0.4071,0.4091,0.4187,0.4215,0.388,0.388,0.388,0,0.3323,0.3342,0.335,0.3391,0.3425,0.3447,0.3497,0.3528,0.3584,0.3627,0.3602,0.3738,0.3746,0.3864,0.3887,0.3893,0.3957,0.3877,0.4066,0.4086,0.4104,0.4198,0.4227,0.3885,0.3885,0.3884,0.3884,0,0.3364,0.3386,0.3407,0.3453,0.3495,0.3541,0.359,0.3636,0.3659,0.3705,0.3821,0.3852,0.3933,0.3955,0.3941,0.4088,0.4093,0.4073,0.4031,0.4135,0.4227,0.4256,0.3892,0.389,0.3889,0.3888,0,0,0.3364,0.3422,0.343,0.3469,0.3531,0.3578,0.3646,0.3737,0.3812,0.3864,0.3981,0.4045,0.4073,0.4103,0.4121,0.4203,0.4375,0.4188,0.4192,0.4283,0.4643,0.4583,0.4608,0.4401,0.4406,0.441,0.4661,0,0.3399,0.3474,0.3494,0.358,0.3629,0.3675,0.3747,0.3832,0.3902,0.402,0.4083,0.4196,0.4128,0.4192,0.4263,0.4364,0.4453,0.4309,0.4528,0.4534,0.4469,0.464,0.4452,0.4655,0.4689,0.4693,0.4697,0,0.3434,0.3481,0.3562,0.3658,0.3686,0.3741,0.3877,0.3948,0.4101,0.4164,0.4277,0.4339,0.4476,0.44,0.461,0.453,0.4585,0.4642,0.4653,0.4583,0.4528,0.4554,0.4705,0.456,0.4741,0.4737,0.4734,0,0.344,0.353,0.3594,0.3626,0.3737,0.3793,0.3859,0.4,0.4091,0.4276,0.4378,0.453,0.4628,0.4739,0.4807,0.4748,0.5038,0.4976,0.4978,0.4974,0.4846,0.4822,0.4876,0.5132,0.5132,0.5131,0.513,0,0.3471,0.3529,0.3603,0.3644,0.3745,0.3816,0.3951,0.404,0.4206,0.4338,0.4449,0.4585,0.4719,0.4875,0.4918,0.5047,0.5133,0.5033,0.5056,0.4871,0.4847,0.4735,0.4661,0.514,0.5138,0.5136,0.5135,0,0.3488,0.3527,0.3608,0.3711,0.3748,0.3825,0.3979,0.4088,0.4231,0.4413,0.4484,0.4689,0.4891,0.5012,0.522,0.5189,0.518,0.5329,0.5088,0.5077,0.4905,0.4843,0.4787,0.4638,0.5406,0.5406,0.5407,0,0.3509,0.355,0.3641,0.3696,0.3746,0.3861,0.3948,0.4086,0.4187,0.4461,0.4544,0.4806,0.4953,0.5238,0.5278,0.5409,0.521,0.5273,0.5106,0.4914,0.4865,0.4659,0.452,0.4989,0.4986,0.4983,0.4981,0,0.3568,0.3588,0.3658,0.3727,0.3807,0.3891,0.4003,0.4074,0.4245,0.4398,0.4589,0.475,0.5019,0.5082,0.5243,0.5271,0.5007,0.5222,0.5104,0.4622,0.4325,0.4184,0.4795,0.4958,0.496,0.4962,0.4963,0.4964,0.3614,0.3653,0.3708,0.3767,0.3839,0.3867,0.389,0.4008,0.4124,0.4276,0.4507,0.4667,0.4854,0.5062,0.5063,0.4913,0.4878,0.4754,0.4728,0.4562,0.4299,0.4851,0.4974,0.4976,0.4978,0.498,0.4981,0,0.3649,0.3679,0.3748,0.377,0.3781,0.3823,0.3886,0.3864,0.3912,0.4134,0.4281,0.4462,0.4552,0.4644,0.461,0.4441,0.4215,0.4304,0.3965,0.3877,0.4464,0.4322,0.4209,0.4209,0.4209,0.4209,0.4209,0.4209,0.3677,0.3714,0.3708,0.3678,0.3683,0.3614,0.36,0.3584,0.3669,0.3745,0.3837,0.4004,0.4215,0.4327,0.4162,0.4057,0.3714,0.3566,0.3545,0.3952,0.3989,0.4024,0.3873,0.3668,0.3668,0.2771,0.2765,0.276]},{"header":{"parameterUnit":"m.s-1","parameterCategory":2,"la1":30.2991,"la2":30.254,"lo1":-89.0895,"lo2":-89.0444,"dy":0.0017,"dx":0.0017,"nx":28,"ny":28,"refTime":"2025-07-26T21:00:00:Z","depth":"0","parameterNumber":3,"parameterNumberName":"V-component_of_CURRENTS"},"data":[0,0,0,0,0,0,0,0,0,0,0,0,0,0,0,0,0,0,0,0,0,0,0,0,0,0,0,0,0,0,0,0,0,0,0,0,0,0,0,0,0,0,0,0,0,0,0,0,0,0,0,0,0,0,0,0,0,0,0.012,0.0119,0,0.0052,0.0052,0.0051,0.0002,0.0002,0.0001,0.0001,-0.0088,-0.009,-0.0093,0,0,0,0,0,0,0,0,0,0,0,0,0,0.0165,0.0165,0.012,0.0119,0.0119,0.0053,0.0052,0.005,0.0002,0.0002,0.0001,0.0001,-0.0088,-0.009,-0.0093,0,0,0,0,0,0,0,0,0,0,0,0,0,0.0125,0.0164,0.012,0.0088,0.0084,0.0053,0.0051,0.005,0.0002,0.0001,0.0001,0.0001,-0.0087,-0.009,-0.0093,-0.0106,0,0,-0.0103,-0.0104,0,0,0,0,0,0,0,0,0.0127,0.0123,0.0093,0.009,0.0086,0.0037,0.0035,-0.0002,0.0002,0.0031,0.0001,0.0001,-0.0047,-0.0054,-0.0068,-0.011,-0.0114,-0.0103,-0.0105,-0.0107,-0.0108,0,0,0,0,0,0,0,0.013,0.0125,0.0091,0.0093,0.0088,0.0062,0.0056,0.0027,-0.0007,0.0029,0.0025,0.0021,-0.005,-0.0064,-0.007,-0.0115,-0.0103,-0.0106,-0.0108,-0.0109,-0.0175,-0.0175,0,0,0,0,0,0,0.0144,0.0128,0.0094,0.009,0.0108,0.0062,0.0055,0.0051,-0.0006,-0.0015,0.0021,0.0019,-0.0059,-0.0066,-0.0074,-0.0073,-0.0107,-0.011,-0.0111,-0.0175,-0.0175,-0.0175,0,0,0,0,0,0,0.0146,0.0142,0.0096,0.0109,0.0101,0.0062,0.0058,0.005,0.0038,-0.0011,-0.0021,0.0018,-0.0059,-0.0069,-0.0095,-0.0077,-0.0111,-0.0114,-0.0175,-0.0175,-0.0175,-0.0083,0,0,0,0,0,0,0.0147,0.0143,0.0146,0.011,0.0101,0.0087,0.0058,0.0049,0.0037,0.0033,-0.0017,-0.0026,-0.006,-0.009,-0.0098,-0.0082,-0.0117,-0.0175,-0.0175,-0.0175,-0.0087,-0.008,-0.0074,0,0,0,0,0,0.0149,0.0159,0.0146,0.0142,0.0106,0.0088,0.0082,0.0051,0.0037,0.0037,0.0002,-0.0025,-0.0093,-0.0092,-0.0102,-0.0087,-0.0176,-0.0175,-0.0175,-0.0089,-0.0081,-0.0074,0,0,0,0,0,0,0.0181,0.0154,0.0139,0.0141,0.012,0.0081,0.0079,0.0058,0.003,0.0026,-0.0022,-0.0033,-0.0052,-0.0084,-0.0081,-0.0107,-0.0139,-0.014,-0.0071,-0.0063,-0.0057,-0.0019,-0.0119,0,0,0,0,0,0.019,0.019,0.0159,0.016,0.0154,0.0117,0.0107,0.0087,0.0057,0.0044,0.001,-0.0028,-0.0059,-0.0071,-0.0107,-0.0116,-0.0121,-0.0115,-0.0109,-0.0103,-0.008,-0.0066,-0.0055,-0.0173,-0.0173,-0.0173,0,0,0.0203,0.0189,0.0187,0.0167,0.0148,0.0153,0.011,0.01,0.0107,0.0039,0.0037,-0.001,-0.0059,-0.0072,-0.0083,-0.0094,-0.0075,-0.0103,-0.0097,-0.0077,-0.0064,-0.0052,-0.0042,-0.0173,-0.0173,-0.0173,0,0,0.0236,0.0216,0.023,0.0219,0.0199,0.0179,0.0182,0.0148,0.0136,0.0121,0.0076,0.0047,-0.0003,-0.0026,-0.0046,-0.0027,-0.0047,-0.0046,0.0025,0.0038,0.0049,0.0058,0.0065,0.0075,-0.0036,-0.0036,-0.0036,0,0.0253,0.0267,0.0232,0.0245,0.0249,0.02,0.0223,0.0204,0.0167,0.0178,0.0132,0.0084,0.0024,0.0036,0.0026,-0.0009,-0.0005,0.0004,0.005,0.0059,0.0068,0.0072,0.0082,-0.0032,-0.0032,-0.0033,-0.0033,0,0.0298,0.031,0.0319,0.0323,0.032,0.033,0.0305,0.0303,0.0277,0.0266,0.0262,0.0184,0.0165,0.013,0.0074,0.0106,0.0088,0.0055,0.0041,0.0086,0.0086,0.0095,-0.0025,-0.0027,-0.0028,-0.0029,0,0,0.0337,0.035,0.0355,0.0388,0.0365,0.0383,0.039,0.0406,0.0458,0.0391,0.0456,0.0352,0.0321,0.0295,0.023,0.0222,0.025,0.0165,0.0163,0.019,0.0287,0.0253,0.0257,0.0234,0.0235,0.0237,0.0264,0,0.0386,0.0447,0.0428,0.0495,0.0532,0.0498,0.0531,0.0539,0.0532,0.0582,0.051,0.0537,0.0384,0.0394,0.0351,0.0292,0.0276,0.0246,0.0224,0.0224,0.0203,0.0267,0.0241,0.0263,0.0272,0.0273,0.0274,0,0.0441,0.0481,0.0557,0.0623,0.0638,0.0674,0.0746,0.0769,0.0803,0.0802,0.0791,0.0749,0.0719,0.0595,0.0503,0.0495,0.0393,0.033,0.0329,0.0277,0.0205,0.0217,0.0276,0.0041,0.0286,0.0285,0.0284,0,0.0523,0.0578,0.0655,0.0671,0.0728,0.0776,0.0813,0.0853,0.0926,0.0974,0.1047,0.097,0.0987,0.0845,0.0654,0.06,0.0574,0.0487,0.0361,0.0356,0.0321,0.0311,0.0168,0.0435,0.0435,0.0435,0.0435,0,0.0595,0.0663,0.0715,0.0767,0.0902,0.0894,0.1047,0.1066,0.1151,0.1287,0.1187,0.1281,0.1054,0.0991,0.0772,0.0604,0.0659,0.0401,0.0374,0.0348,0.034,0.012,-0.0016,0.0436,0.0436,0.0436,0.0436,0,0.0687,0.0705,0.0819,0.0905,0.0952,0.106,0.1213,0.1326,0.1375,0.1554,0.159,0.1557,0.1469,0.1228,0.1034,0.0796,0.0487,0.0538,0.0515,0.0485,0.0118,-0.0011,-0.015,-0.0245,0.0415,0.0415,0.0414,0,0.0746,0.0812,0.0945,0.1043,0.1098,0.1253,0.1373,0.1444,0.1565,0.1731,0.1835,0.182,0.1828,0.1522,0.1113,0.077,0.051,0.05,0.0369,0.0122,-0.0042,-0.0136,-0.0212,0.0354,0.0353,0.0353,0.0352,0,0.0882,0.0924,0.1021,0.12,0.1347,0.1508,0.1672,0.1797,0.1904,0.2063,0.2227,0.2266,0.1983,0.1636,0.1154,0.0875,0.0327,0.0474,0.0234,-0.0078,-0.0201,-0.0311,0.0301,0.0346,0.0346,0.0347,0.0347,0.0348,0.0996,0.1088,0.1205,0.1375,0.1537,0.171,0.1854,0.2031,0.2244,0.2472,0.2491,0.2603,0.2069,0.1415,0.103,0.0269,0.0288,0.0018,-0.0108,-0.0171,-0.03,0.0296,0.0294,0.0294,0.0294,0.0295,0.0295,0,0.111,0.1203,0.1374,0.1554,0.1715,0.1775,0.2016,0.2164,0.2414,0.266,0.281,0.2599,0.1959,0.1274,0.0266,-0.0223,-0.0416,-0.0503,-0.0663,-0.0705,-0.0157,-0.0202,-0.033,-0.033,-0.033,-0.033,-0.0329,-0.0329,0.1184,0.1326,0.1389,0.1648,0.178,0.199,0.2115,0.236,0.2568,0.2836,0.2922,0.2945,0.2336,0.0629,-0.0517,-0.0776,-0.1129,-0.1204,-0.1342,-0.102,-0.0981,-0.0945,-0.102,-0.1318,-0.1319,-0.184,-0.1846,-0.185]}],[{"header":{"parameterUnit":"m.s-1","parameterCategory":2,"la1":30.2991,"la2":30.254,"lo1":-89.0895,"lo2":-89.0444,"dy":0.0017,"dx":0.0017,"nx":28,"ny":28,"refTime":"2025-07-26T21:00:00:Z","depth":"2","parameterNumber":2,"parameterNumberName":"U-component_of_CURRENTS"},"data":[0,0,0,0,0,0,0,0,0,0,0,0,0,0,0,0,0,0,0,0,0,0,0,0,0,0,0,0,0,0,0,0,0,0,0,0,0,0,0,0,0,0,0,0,0,0,0,0,0,0,0,0,0,0,0,0,0,0,0.2745,0.2746,0,0.2777,0.2777,0.2778,0.2779,0.2779,0.2779,0.2779,0.2813,0.2814,0.2814,0,0,0,0,0,0,0,0,0,0,0,0,0,0.2673,0.2674,0.2745,0.2746,0.2747,0.2777,0.2777,0.2778,0.2779,0.2779,0.2779,0.2779,0.2812,0.2813,0.2815,0,0,0,0,0,0,0,0,0,0,0,0,0,0.2701,0.2675,0.2745,0.2754,0.2755,0.2777,0.2777,0.2778,0.2779,0.2779,0.2779,0.2779,0.2812,0.2813,0.2815,0.2825,0,0,0.2819,0.282,0,0,0,0,0,0,0,0,0.27,0.2704,0.2752,0.2753,0.2755,0.2777,0.2765,0.2795,0.2779,0.2766,0.2779,0.2779,0.2803,0.2805,0.2807,0.2827,0.2828,0.2819,0.282,0.2821,0.2821,0,0,0,0,0,0,0,0.2698,0.2702,0.2754,0.2753,0.2754,0.2752,0.2756,0.277,0.2782,0.2768,0.2769,0.2778,0.2804,0.2805,0.2808,0.2829,0.2819,0.282,0.2821,0.2822,0.2941,0.2943,0,0,0,0,0,0,0.2702,0.2701,0.2753,0.2756,0.273,0.2754,0.2758,0.2767,0.2782,0.2785,0.2778,0.2778,0.2803,0.2806,0.2809,0.2912,0.2821,0.2822,0.2823,0.2938,0.2941,0.2944,0,0,0,0,0,0,0.27,0.2706,0.2752,0.2731,0.2738,0.2756,0.2766,0.2768,0.2788,0.2791,0.2793,0.2798,0.2803,0.2807,0.2844,0.291,0.2823,0.2824,0.2936,0.2939,0.2942,0.3061,0,0,0,0,0,0,0.2698,0.2705,0.2716,0.2732,0.2739,0.2785,0.2767,0.2769,0.2794,0.2795,0.2809,0.281,0.2803,0.2842,0.2846,0.291,0.2825,0.2933,0.2937,0.2941,0.3054,0.3068,0.308,0,0,0,0,0,0.2695,0.2712,0.2716,0.2723,0.2753,0.2787,0.279,0.2799,0.2796,0.2814,0.2825,0.2811,0.2873,0.2845,0.2849,0.2915,0.2931,0.2936,0.2941,0.3049,0.3066,0.308,0,0,0,0,0,0,0.2685,0.2715,0.272,0.2744,0.2773,0.2789,0.2804,0.2813,0.2835,0.2834,0.2833,0.2837,0.2901,0.2885,0.2854,0.2961,0.2903,0.2909,0.2984,0.3,0.3012,0.3012,0.2826,0,0,0,0,0,0.2689,0.2711,0.2739,0.2762,0.2775,0.2793,0.2809,0.2819,0.2839,0.2848,0.2865,0.2884,0.2923,0.294,0.2962,0.3012,0.3022,0.3058,0.3071,0.3082,0.3085,0.3162,0.3183,0.2961,0.2961,0.296,0,0,0.2688,0.2711,0.2722,0.2762,0.2778,0.2813,0.2802,0.2834,0.2873,0.2849,0.2908,0.2931,0.2946,0.3012,0.3039,0.3007,0.3155,0.3089,0.3099,0.3094,0.317,0.3191,0.3211,0.2964,0.2963,0.2963,0,0,0.2704,0.2723,0.2747,0.2778,0.2817,0.2833,0.285,0.2885,0.2911,0.2965,0.2973,0.303,0.3072,0.3109,0.3128,0.3222,0.3224,0.3239,0.3304,0.3381,0.34,0.3417,0.3476,0.3497,0.3242,0.3243,0.3243,0,0.2703,0.2741,0.276,0.2798,0.283,0.2849,0.2888,0.2921,0.2969,0.301,0.2997,0.3119,0.3121,0.323,0.3258,0.3255,0.3291,0.3246,0.3399,0.3416,0.3431,0.3488,0.3509,0.3249,0.3248,0.3248,0.3247,0,0.2735,0.2775,0.2795,0.285,0.2887,0.2926,0.2974,0.3031,0.3065,0.3097,0.3215,0.3244,0.3318,0.334,0.3321,0.3449,0.344,0.3412,0.3361,0.3461,0.3514,0.3534,0.3258,0.3256,0.3254,0.3252,0,0,0.2712,0.2799,0.2809,0.2857,0.292,0.2961,0.3041,0.3124,0.3204,0.3261,0.3375,0.3441,0.3469,0.3493,0.3513,0.3567,0.3699,0.3536,0.3537,0.3597,0.3875,0.3762,0.3773,0.371,0.3714,0.3717,0.3876,0,0.2734,0.2807,0.2852,0.2943,0.2987,0.3055,0.3137,0.3218,0.329,0.3405,0.3467,0.3572,0.3526,0.3595,0.3645,0.3686,0.3756,0.3658,0.3766,0.3769,0.3659,0.3794,0.3493,0.36,0.3895,0.3899,0.3901,0,0.2751,0.2804,0.2874,0.3013,0.3042,0.3108,0.3263,0.3342,0.3486,0.3558,0.367,0.3714,0.3826,0.3771,0.3903,0.3848,0.3873,0.3891,0.3898,0.3759,0.3693,0.3544,0.3626,0.3935,0.3932,0.393,0.3927,0,0.2728,0.2837,0.2893,0.2931,0.3068,0.3149,0.3244,0.3385,0.3474,0.3669,0.3751,0.3886,0.3971,0.4031,0.4048,0.4,0.4181,0.4116,0.4049,0.4041,0.3785,0.3747,0.4228,0.4228,0.4227,0.4227,0.4227,0,0.2744,0.2809,0.2892,0.2941,0.3061,0.3153,0.3296,0.3441,0.3597,0.372,0.3826,0.3947,0.404,0.4132,0.4133,0.4159,0.4259,0.409,0.4088,0.3818,0.3783,0.4054,0.4031,0.4233,0.4232,0.423,0.4229,0,0.2734,0.2775,0.2866,0.3,0.3057,0.3148,0.3333,0.3434,0.3591,0.3767,0.3836,0.4019,0.414,0.4206,0.4324,0.4259,0.4302,0.429,0.3959,0.3913,0.409,0.4072,0.4231,0.4229,0.4227,0.4225,0.4224,0,0.2743,0.278,0.2898,0.2964,0.304,0.3165,0.3261,0.3435,0.3549,0.3798,0.3895,0.4062,0.4137,0.4255,0.4222,0.4237,0.431,0.3964,0.3795,0.4116,0.4098,0.4083,0.4068,0.3519,0.3512,0.3506,0.3502,0,0.2789,0.281,0.2873,0.296,0.3062,0.3165,0.333,0.3379,0.3582,0.3743,0.39,0.3959,0.4053,0.3921,0.3957,0.3918,0.3926,0.3843,0.4315,0.3547,0.3452,0.3431,0.3439,0.345,0.3455,0.3459,0.3462,0.3464,0.2802,0.2847,0.2884,0.2957,0.306,0.3118,0.3149,0.3256,0.3376,0.3478,0.3696,0.3672,0.3695,0.3545,0.3469,0.342,0.3655,0.3492,0.3507,0.3529,0.3401,0.3305,0.3253,0.3256,0.326,0.3263,0.3265,0,0.2793,0.2835,0.2901,0.2949,0.2973,0.3065,0.3156,0.3077,0.3088,0.3232,0.3278,0.3035,0.2968,0.3006,0.2847,0.2848,0.2792,0.2743,0.2647,0.2703,0.2751,0.2578,0.2215,0.2211,0.2207,0.2204,0,0,0.2796,0.2799,0.2795,0.2789,0.2847,0.2785,0.2779,0.2704,0.2716,0.2603,0.261,0.2751,0.2913,0.2506,0.2477,0.2324,0.2483,0.2237,0.309,0.3034,0.3077,0.3208,0.3008,0,0,0,0,0]},{"header":{"parameterUnit":"m.s-1","parameterCategory":2,"la1":30.2991,"la2":30.254,"lo1":-89.0895,"lo2":-89.0444,"dy":0.0017,"dx":0.0017,"nx":28,"ny":28,"refTime":"2025-07-26T21:00:00:Z","depth":"2","parameterNumber":3,"parameterNumberName":"V-component_of_CURRENTS"},"data":[0,0,0,0,0,0,0,0,0,0,0,0,0,0,0,0,0,0,0,0,0,0,0,0,0,0,0,0,0,0,0,0,0,0,0,0,0,0,0,0,0,0,0,0,0,0,0,0,0,0,0,0,0,0,0,0,0,0,-0.0014,-0.0015,0,-0.0076,-0.0077,-0.0077,-0.0119,-0.0119,-0.0119,-0.0119,-0.0192,-0.0194,-0.0196,0,0,0,0,0,0,0,0,0,0,0,0,0,0.0023,0.0023,-0.0014,-0.0015,-0.0016,-0.0076,-0.0077,-0.0078,-0.0119,-0.0119,-0.0119,-0.012,-0.0192,-0.0194,-0.0196,0,0,0,0,0,0,0,0,0,0,0,0,0,-0.0012,0.0023,-0.0014,-0.0043,-0.0046,-0.0076,-0.0077,-0.0078,-0.0119,-0.0119,-0.0119,-0.012,-0.0191,-0.0193,-0.0196,-0.0205,0,0,-0.0204,-0.0205,0,0,0,0,0,0,0,0,-0.001,-0.0013,-0.0038,-0.0041,-0.0045,-0.0089,-0.009,-0.0121,-0.0119,-0.0092,-0.0119,-0.012,-0.0158,-0.0163,-0.0175,-0.0209,-0.0212,-0.0204,-0.0206,-0.0207,-0.0208,0,0,0,0,0,0,0,-0.0007,-0.0011,-0.0039,-0.0039,-0.0043,-0.0068,-0.0073,-0.0096,-0.0123,-0.0094,-0.0097,-0.0103,-0.016,-0.0172,-0.0177,-0.0213,-0.0204,-0.0206,-0.0208,-0.0209,-0.0253,-0.0252,0,0,0,0,0,0,0.0005,-0.0008,-0.0037,-0.0041,-0.0027,-0.0068,-0.0074,-0.0075,-0.0123,-0.013,-0.0103,-0.0105,-0.0168,-0.0174,-0.018,-0.0175,-0.0207,-0.0209,-0.0211,-0.0253,-0.0253,-0.0252,0,0,0,0,0,0,0.0006,0.0003,-0.0035,-0.0026,-0.0032,-0.0068,-0.007,-0.0076,-0.0086,-0.0129,-0.0136,-0.0105,-0.0168,-0.0176,-0.0194,-0.0179,-0.021,-0.0213,-0.0254,-0.0253,-0.0253,-0.0177,0,0,0,0,0,0,0.0007,0.0004,0.0008,-0.0025,-0.0032,-0.0041,-0.0069,-0.0077,-0.0089,-0.0092,-0.0134,-0.0141,-0.0169,-0.019,-0.0197,-0.0183,-0.0215,-0.0254,-0.0253,-0.0253,-0.018,-0.0174,-0.0169,0,0,0,0,0,0.0009,0.002,0.0009,0.0005,-0.0026,-0.004,-0.0046,-0.0074,-0.0089,-0.0086,-0.0116,-0.014,-0.0191,-0.0192,-0.02,-0.0186,-0.0255,-0.0254,-0.0253,-0.0183,-0.0175,-0.0169,0,0,0,0,0,0,0.0036,0.0016,0.0003,0.0006,-0.0011,-0.0047,-0.0048,-0.0068,-0.009,-0.0093,-0.0135,-0.0144,-0.0157,-0.0182,-0.0183,-0.0198,-0.0226,-0.0227,-0.017,-0.0164,-0.0158,-0.0127,-0.0217,0,0,0,0,0,0.0045,0.0049,0.0023,0.0026,0.002,-0.0013,-0.0023,-0.004,-0.0065,-0.0076,-0.0106,-0.0137,-0.016,-0.0169,-0.0198,-0.0202,-0.0227,-0.0199,-0.0194,-0.0189,-0.017,-0.0195,-0.019,-0.0249,-0.025,-0.025,0,0,0.0055,0.0045,0.0046,0.0032,0.0014,0.0021,-0.002,-0.0027,-0.0019,-0.008,-0.0081,-0.0121,-0.0159,-0.0167,-0.0174,-0.0184,-0.0188,-0.0188,-0.0183,-0.0166,-0.0194,-0.0188,-0.0182,-0.0249,-0.0249,-0.0249,0,0,0.0084,0.0071,0.0086,0.0079,0.0062,0.0046,0.0048,0.0018,0.0008,-0.0003,-0.0043,-0.0067,-0.0107,-0.0125,-0.014,-0.0119,-0.0162,-0.0135,-0.0074,-0.0099,-0.0094,-0.009,-0.0123,-0.0123,-0.0126,-0.0125,-0.0125,0,0.0097,0.0115,0.0088,0.0102,0.0105,0.0064,0.0086,0.0072,0.004,0.0043,0.0008,-0.004,-0.0081,-0.0076,-0.0076,-0.0103,-0.013,-0.0095,-0.009,-0.0087,-0.0083,-0.0119,-0.0119,-0.0122,-0.0122,-0.0123,-0.0123,0,0.0138,0.0154,0.0163,0.0172,0.0171,0.0182,0.0163,0.0163,0.0139,0.0123,0.0112,0.0052,0.0029,0.0005,-0.0032,-0.0025,-0.0057,-0.0084,-0.0102,-0.0073,-0.0112,-0.0114,-0.0116,-0.0118,-0.0119,-0.012,0,0,0.0164,0.0189,0.0193,0.0221,0.0212,0.0223,0.0238,0.0249,0.0279,0.0227,0.0257,0.0191,0.0155,0.0135,0.0083,0.0057,0.0038,0.0001,-0.0003,-0.0023,-0.0025,-0.0077,-0.0085,0.0008,0.0009,0.0009,-0.0064,0,0.0206,0.0261,0.0256,0.0314,0.0344,0.0325,0.0352,0.0354,0.0343,0.036,0.03,0.0301,0.0208,0.0202,0.0157,0.0073,0.0039,0.006,-0.0058,-0.0061,-0.0104,-0.0086,-0.0061,-0.0127,-0.0066,-0.0066,-0.0067,0,0.0248,0.0285,0.0347,0.0408,0.042,0.0449,0.0497,0.0518,0.0525,0.0517,0.0496,0.0445,0.0401,0.0319,0.019,0.0205,0.01,0.0025,0.0019,-0.0051,-0.0116,-0.0146,-0.0132,-0.007,-0.0069,-0.0069,-0.0069,0,0.0292,0.0353,0.0412,0.0428,0.048,0.0515,0.0549,0.057,0.0615,0.063,0.0658,0.058,0.056,0.042,0.0242,0.0219,0.0098,0.0046,-0.01,-0.0105,-0.0116,-0.0123,-0.0038,-0.0038,-0.0038,-0.0037,-0.0037,0,0.0342,0.0393,0.0445,0.0481,0.0578,0.0584,0.0679,0.0707,0.0753,0.0836,0.0749,0.0787,0.0585,0.0483,0.0298,0.0097,0.0135,-0.0079,-0.0121,-0.0093,-0.0096,-0.0071,-0.0074,-0.004,-0.0039,-0.0039,-0.0038,0,0.0378,0.0407,0.049,0.0566,0.0604,0.0674,0.0782,0.0847,0.0882,0.0988,0.1004,0.0948,0.0813,0.0591,0.0375,0.0186,-0.0007,-0.0088,-0.0047,-0.0084,-0.0211,-0.0209,-0.0258,-0.026,-0.0262,-0.0264,-0.0265,0,0.0403,0.0448,0.0557,0.0628,0.0671,0.0774,0.0851,0.0913,0.0985,0.1096,0.1149,0.1073,0.1021,0.0667,0.0333,0.0006,-0.0023,-0.0185,-0.0231,-0.0194,-0.023,-0.0225,-0.0221,-0.0222,-0.0222,-0.0223,-0.0224,0,0.0461,0.0493,0.0562,0.0694,0.0794,0.0907,0.1019,0.1097,0.1187,0.1301,0.1401,0.1381,0.1048,0.0723,0.0271,0.0049,-0.0138,-0.0213,-0.0163,-0.0174,-0.0167,-0.0201,-0.0196,-0.023,-0.023,-0.0229,-0.0229,-0.0229,0.0502,0.0558,0.0643,0.0774,0.0887,0.1015,0.1112,0.1238,0.1395,0.1552,0.1537,0.1524,0.1156,0.0564,0.0192,-0.0198,-0.0195,-0.0333,-0.0327,-0.0322,-0.0308,-0.0306,-0.0393,-0.0393,-0.0394,-0.0394,-0.0394,0,0.0541,0.0612,0.0727,0.0869,0.0987,0.1044,0.1205,0.1314,0.1512,0.1644,0.1722,0.1402,0.1032,0.0624,0.0036,-0.0325,-0.0337,-0.0427,-0.0356,-0.0348,-0.0341,-0.0326,-0.0417,-0.0418,-0.0419,-0.0419,0,0,0.0566,0.0658,0.0714,0.0916,0.1028,0.1179,0.1273,0.1469,0.1587,0.1725,0.1735,0.1629,0.1146,0.0722,0.0241,-0.0079,-0.0129,-0.0147,-0.0096,0.0052,0.0064,-0.0262,-0.0228,0,0,0,0,0]}],[{"header":{"parameterUnit":"m.s-1","parameterCategory":2,"la1":30.2991,"la2":30.254,"lo1":-89.0895,"lo2":-89.0444,"dy":0.0017,"dx":0.0017,"nx":28,"ny":28,"refTime":"2025-07-26T21:00:00:Z","depth":"4","parameterNumber":2,"parameterNumberName":"U-component_of_CURRENTS"},"data":[0,0,0,0,0,0,0,0,0,0,0,0,0,0,0,0,0,0,0,0,0,0,0,0,0,0,0,0,0,0,0,0,0,0,0,0,0,0,0,0,0,0,0,0,0,0,0,0,0,0,0,0,0,0,0,0,0,0,0.1721,0.1722,0,0.1783,0.1783,0.1784,0.1844,0.1845,0.1846,0.1847,0.1912,0.1913,0.1914,0,0,0,0,0,0,0,0,0,0,0,0,0,0.1629,0.1631,0.1721,0.1722,0.1723,0.1783,0.1783,0.1784,0.1844,0.1845,0.1846,0.1847,0.1912,0.1913,0.1914,0,0,0,0,0,0,0,0,0,0,0,0,0,0.1676,0.1631,0.1721,0.1762,0.1767,0.1782,0.1783,0.1784,0.1843,0.1845,0.1846,0.1848,0.1912,0.1913,0.1914,0.1891,0,0,0.1918,0.1918,0,0,0,0,0,0,0,0,0.1673,0.1679,0.1755,0.1759,0.1764,0.1809,0.1775,0.1821,0.1843,0.1812,0.1847,0.1849,0.1879,0.1883,0.1887,0.1894,0.1897,0.1918,0.1918,0.1919,0.1919,0,0,0,0,0,0,0,0.167,0.1676,0.1743,0.1756,0.1762,0.1768,0.1776,0.1784,0.1834,0.1815,0.182,0.183,0.1881,0.1886,0.1889,0.1898,0.1918,0.1919,0.192,0.192,0.2004,0.2006,0,0,0,0,0,0,0.1667,0.1673,0.1741,0.1745,0.1724,0.1769,0.1778,0.1791,0.1834,0.1843,0.1828,0.1832,0.1883,0.1888,0.1892,0.1968,0.1919,0.192,0.1921,0.2003,0.2005,0.2006,0,0,0,0,0,0,0.1665,0.1672,0.1739,0.1712,0.1722,0.1769,0.1784,0.1792,0.1836,0.1845,0.1854,0.1869,0.1885,0.189,0.1933,0.1967,0.1921,0.1922,0.2001,0.2003,0.2005,0.2056,0,0,0,0,0,0,0.1662,0.1671,0.1696,0.1712,0.1723,0.1766,0.1783,0.1792,0.1838,0.1845,0.1881,0.1887,0.1886,0.1932,0.1935,0.1968,0.1923,0.1999,0.2002,0.2005,0.2052,0.206,0.2066,0,0,0,0,0,0.1658,0.1677,0.1697,0.1706,0.1751,0.1767,0.1773,0.1809,0.1839,0.1856,0.1891,0.1888,0.1952,0.1934,0.1937,0.1972,0.1998,0.2001,0.2004,0.2049,0.2058,0.2066,0,0,0,0,0,0,0.1648,0.1686,0.1708,0.1739,0.1762,0.1778,0.1805,0.1829,0.1868,0.1891,0.1902,0.1909,0.1961,0.1958,0.1938,0.2005,0.1976,0.198,0.2009,0.2018,0.2024,0.2037,0.1924,0,0,0,0,0,0.1657,0.1689,0.1713,0.1743,0.1758,0.1789,0.181,0.1834,0.1863,0.1885,0.1909,0.1941,0.1969,0.1989,0.2006,0.2038,0.2059,0.2065,0.2072,0.2077,0.2091,0.2162,0.2177,0.2017,0.2017,0.2017,0,0,0.1661,0.1689,0.1708,0.1745,0.177,0.179,0.1806,0.1845,0.1874,0.1883,0.1941,0.1965,0.1983,0.2025,0.2047,0.2033,0.2132,0.2082,0.2086,0.2097,0.2168,0.2183,0.2197,0.202,0.2019,0.2019,0,0,0.1669,0.1712,0.1734,0.1756,0.1801,0.1817,0.1836,0.1871,0.1906,0.1952,0.1974,0.2024,0.2057,0.2081,0.2097,0.2151,0.2165,0.216,0.2206,0.2276,0.229,0.2302,0.234,0.2355,0.2164,0.2164,0.2164,0,0.1675,0.1706,0.1742,0.1764,0.1789,0.1832,0.1853,0.1887,0.1935,0.1973,0.1981,0.2078,0.2085,0.2154,0.2171,0.2167,0.2203,0.2172,0.2286,0.2299,0.2311,0.2346,0.2363,0.2167,0.2167,0.2167,0.2166,0,0.1685,0.1723,0.1738,0.1784,0.1812,0.184,0.1883,0.1932,0.1983,0.2019,0.2112,0.2141,0.2207,0.2211,0.2206,0.2299,0.2295,0.2286,0.2265,0.233,0.2362,0.2379,0.2171,0.217,0.2169,0.2169,0,0,0.1659,0.1731,0.1739,0.1766,0.1829,0.1846,0.1912,0.1974,0.2045,0.2103,0.2193,0.2242,0.2291,0.2313,0.233,0.2378,0.2476,0.2373,0.2375,0.241,0.2626,0.2445,0.2445,0.25,0.2504,0.2506,0.2611,0,0.1656,0.1697,0.1739,0.1783,0.1804,0.1872,0.1927,0.1999,0.2083,0.218,0.2247,0.2339,0.2322,0.2382,0.2431,0.2472,0.2524,0.2448,0.2558,0.2561,0.2393,0.2459,0.2517,0.2623,0.2627,0.2629,0.2631,0,0.1643,0.1675,0.1719,0.1791,0.181,0.1862,0.1981,0.203,0.2173,0.2255,0.2375,0.2437,0.2538,0.2514,0.2636,0.2597,0.2624,0.2639,0.2644,0.247,0.241,0.2548,0.2661,0.2658,0.2656,0.2654,0.2652,0,0.1593,0.1657,0.1697,0.172,0.181,0.1875,0.1935,0.207,0.214,0.233,0.2425,0.2554,0.2644,0.2708,0.2743,0.2717,0.2857,0.2823,0.2685,0.2672,0.2782,0.2768,0.2918,0.2917,0.2917,0.2917,0.2917,0,0.1557,0.1585,0.1694,0.1718,0.1782,0.186,0.1969,0.2067,0.2228,0.2311,0.2472,0.257,0.2704,0.2787,0.28,0.2787,0.2916,0.2706,0.2695,0.2797,0.2784,0.2793,0.2777,0.2921,0.292,0.2919,0.2919,0,0.148,0.1552,0.1603,0.1722,0.1765,0.1815,0.197,0.2037,0.2223,0.235,0.2419,0.2622,0.2731,0.2822,0.2927,0.2845,0.2857,0.2822,0.2928,0.292,0.2611,0.2597,0.2678,0.2673,0.2668,0.2664,0.2661,0,0.1439,0.1462,0.1592,0.1623,0.169,0.1785,0.184,0.2023,0.209,0.2343,0.2373,0.2576,0.2681,0.2695,0.2801,0.2835,0.2797,0.2782,0.2684,0.2609,0.2591,0.2584,0.2576,0.2654,0.2653,0.2652,0.265,0,0.1346,0.1417,0.145,0.1529,0.1605,0.1655,0.1756,0.181,0.1995,0.2191,0.2293,0.2381,0.2503,0.2583,0.264,0.2649,0.2776,0.2734,0.2742,0.265,0.2581,0.2566,0.2564,0.2635,0.2637,0.2638,0.2639,0,0.1275,0.1264,0.1332,0.1386,0.1462,0.1485,0.1576,0.1652,0.1751,0.2029,0.2055,0.2278,0.2462,0.2488,0.2531,0.2539,0.2494,0.2393,0.2419,0.2437,0.2309,0.2183,0.2118,0,0,0,0,0,0.1176,0.1137,0.1174,0.121,0.1287,0.1343,0.1473,0.157,0.1777,0.1785,0.1919,0.2022,0.2138,0.2256,0.2218,0.2418,0.2493,0.236,0.2385,0.2547,0.2566,0.2436,0,0,0,0,0,0,0.1093,0.1103,0.1107,0.106,0.1063,0.1122,0.1215,0.1364,0.138,0.1614,0.1691,0.187,0.2013,0.2129,0.2168,0.22,0.2167,0.2497,0.2491,0.2537,0.2554,0.2568,0.2441,0,0,0,0,0]},{"header":{"parameterUnit":"m.s-1","parameterCategory":2,"la1":30.2991,"la2":30.254,"lo1":-89.0895,"lo2":-89.0444,"dy":0.0017,"dx":0.0017,"nx":28,"ny":28,"refTime":"2025-07-26T21:00:00:Z","depth":"4","parameterNumber":3,"parameterNumberName":"V-component_of_CURRENTS"},"data":[0,0,0,0,0,0,0,0,0,0,0,0,0,0,0,0,0,0,0,0,0,0,0,0,0,0,0,0,0,0,0,0,0,0,0,0,0,0,0,0,0,0,0,0,0,0,0,0,0,0,0,0,0,0,0,0,0,0,0.0013,0.0012,0,-0.0026,-0.0026,-0.0027,-0.0059,-0.0059,-0.006,-0.006,-0.0108,-0.0109,-0.011,0,0,0,0,0,0,0,0,0,0,0,0,0,0.0035,0.0035,0.0013,0.0012,0.0012,-0.0026,-0.0026,-0.0027,-0.0059,-0.0059,-0.006,-0.006,-0.0108,-0.0109,-0.011,0,0,0,0,0,0,0,0,0,0,0,0,0,0.0014,0.0035,0.0013,-0.0009,-0.0011,-0.0026,-0.0026,-0.0027,-0.0059,-0.0059,-0.006,-0.006,-0.0107,-0.0109,-0.011,-0.0109,0,0,-0.0115,-0.0115,0,0,0,0,0,0,0,0,0.0015,0.0013,-0.0005,-0.0007,-0.001,-0.0038,-0.0036,-0.0055,-0.0059,-0.0041,-0.006,-0.006,-0.0085,-0.0088,-0.0095,-0.0111,-0.0113,-0.0115,-0.0116,-0.0116,-0.0117,0,0,0,0,0,0,0,0.0017,0.0015,-0.0003,-0.0006,-0.0008,-0.0024,-0.0028,-0.004,-0.006,-0.0042,-0.0045,-0.0049,-0.0087,-0.0093,-0.0096,-0.0114,-0.0115,-0.0116,-0.0117,-0.0117,-0.0129,-0.0128,0,0,0,0,0,0,0.0023,0.0016,-0.0001,-0.0004,0.0002,-0.0024,-0.0028,-0.0029,-0.006,-0.0065,-0.0048,-0.005,-0.009,-0.0094,-0.0098,-0.0083,-0.0116,-0.0118,-0.0118,-0.0129,-0.0129,-0.0128,0,0,0,0,0,0,0.0024,0.0022,0.0,0.0005,0.0001,-0.0024,-0.0024,-0.0029,-0.0036,-0.0064,-0.0069,-0.0051,-0.0091,-0.0096,-0.0103,-0.0086,-0.0118,-0.012,-0.013,-0.0129,-0.0128,-0.0064,0,0,0,0,0,0,0.0025,0.0023,0.0026,0.0006,0.0001,0.0001,-0.0024,-0.0029,-0.0038,-0.0041,-0.0068,-0.0073,-0.0092,-0.0101,-0.0105,-0.0089,-0.0121,-0.0131,-0.0129,-0.0128,-0.0067,-0.0061,-0.0056,0,0,0,0,0,0.0026,0.0036,0.0027,0.0025,0.0006,0.0001,-0.0002,-0.0022,-0.0037,-0.0032,-0.0053,-0.0072,-0.0097,-0.0102,-0.0106,-0.009,-0.0131,-0.013,-0.0129,-0.0069,-0.0062,-0.0056,0,0,0,0,0,0,0.0046,0.0033,0.0023,0.0027,0.0018,-0.0004,-0.0003,-0.0018,-0.0031,-0.0036,-0.0065,-0.0071,-0.0072,-0.009,-0.0095,-0.0091,-0.0117,-0.0117,-0.007,-0.0064,-0.0059,-0.0047,-0.0122,0,0,0,0,0,0.0052,0.0057,0.0041,0.0044,0.0041,0.0019,0.0014,0.0002,-0.0014,-0.0021,-0.004,-0.0059,-0.007,-0.0074,-0.009,-0.0085,-0.0125,-0.0078,-0.0073,-0.0068,-0.0062,-0.0109,-0.0108,-0.0124,-0.0124,-0.0124,0,0,0.006,0.0053,0.0055,0.0049,0.0038,0.0048,0.0015,0.0012,0.0022,-0.0023,-0.0018,-0.0043,-0.0066,-0.0062,-0.0064,-0.0074,-0.0086,-0.0066,-0.0062,-0.0059,-0.0108,-0.0107,-0.0105,-0.0123,-0.0123,-0.0123,0,0,0.0083,0.0073,0.0087,0.0085,0.0076,0.0068,0.007,0.0052,0.0046,0.0046,0.0016,0.0003,-0.0014,-0.0025,-0.0033,-0.0007,-0.0059,-0.0012,0.0029,-0.0016,-0.0016,-0.0015,-0.007,-0.0075,-0.0005,-0.0005,-0.0005,0,0.0092,0.0107,0.009,0.0105,0.011,0.0081,0.0101,0.0095,0.0078,0.0076,0.0057,0.0026,0.0006,0.001,0.0021,0.0006,-0.0035,0.0008,-0.001,-0.001,-0.0011,-0.0067,-0.0074,-0.0002,-0.0002,-0.0003,-0.0003,0,0.0126,0.014,0.0149,0.0161,0.0166,0.0177,0.0169,0.0171,0.0156,0.0143,0.0134,0.01,0.0081,0.0075,0.0059,0.0051,0.0017,-0.0001,-0.0025,-0.0006,-0.0066,-0.0074,0.0003,0.0001,0.0001,-0.0,0,0,0.0141,0.0168,0.0172,0.0193,0.0197,0.0207,0.0226,0.0234,0.0244,0.0218,0.0221,0.0201,0.0168,0.0156,0.0126,0.0093,0.0051,0.0051,0.0047,-0.0002,-0.0063,-0.0068,-0.0078,0.0025,0.0024,0.0023,-0.0106,0,0.0173,0.0217,0.0222,0.0269,0.0292,0.0284,0.0305,0.0306,0.0295,0.0291,0.025,0.0239,0.0204,0.0192,0.0155,0.0077,0.0034,0.0087,-0.0076,-0.0081,-0.0086,-0.0085,0.0021,-0.0112,-0.0114,-0.0115,-0.0116,0,0.0202,0.0231,0.0282,0.0326,0.0335,0.036,0.0385,0.0402,0.0388,0.0376,0.0351,0.0308,0.0267,0.0227,0.0102,0.0134,0.0045,-0.0023,-0.003,-0.006,-0.01,-0.0135,-0.0131,-0.013,-0.0129,-0.0128,-0.0127,0,0.022,0.0274,0.032,0.0334,0.0376,0.0401,0.0423,0.0425,0.0447,0.0428,0.0426,0.0359,0.0326,0.0212,0.0082,0.0085,-0.0074,-0.0092,-0.0185,-0.0188,-0.0174,-0.0173,-0.019,-0.019,-0.0189,-0.0189,-0.0189,0,0.0248,0.0285,0.0336,0.0361,0.0421,0.0435,0.0487,0.0495,0.0507,0.0533,0.0472,0.0463,0.0319,0.0215,0.0088,-0.0071,-0.0075,-0.018,-0.0218,-0.0145,-0.0139,-0.0181,-0.0178,-0.0194,-0.0193,-0.0192,-0.0191,0,0.0254,0.0287,0.0346,0.0406,0.0432,0.0473,0.0543,0.058,0.0579,0.0609,0.0606,0.0532,0.0399,0.024,0.0047,-0.0056,-0.0212,-0.0272,-0.0188,-0.0219,-0.0301,-0.0294,-0.0389,-0.039,-0.0391,-0.0392,-0.0393,0,0.0262,0.0293,0.0378,0.0426,0.0459,0.0526,0.0579,0.0614,0.0657,0.0652,0.0668,0.0557,0.0485,0.0216,0.0038,-0.0218,-0.025,-0.0342,-0.0312,-0.0293,-0.0321,-0.0311,-0.0303,-0.0395,-0.0395,-0.0395,-0.0395,0,0.0281,0.031,0.036,0.046,0.0533,0.0614,0.069,0.0726,0.0763,0.0754,0.0724,0.0589,0.0435,0.0228,0.0025,-0.0156,-0.0285,-0.0353,-0.0352,-0.0325,-0.0301,-0.0325,-0.0315,-0.0399,-0.0398,-0.0398,-0.0398,0,0.0295,0.0336,0.0414,0.0504,0.0595,0.0691,0.0722,0.0777,0.0815,0.0806,0.0788,0.0624,0.0524,0.0257,0.0072,-0.0107,-0.0152,-0.0209,-0.0216,-0.0215,-0.0122,-0.0063,-0.012,0,0,0,0,0,0.0317,0.0382,0.0462,0.0569,0.0654,0.0715,0.0801,0.0825,0.0849,0.0842,0.0821,0.0681,0.0415,0.0299,0.0121,0.004,-0.0194,-0.0177,-0.0265,-0.0417,-0.0414,-0.0333,0,0,0,0,0,0,0.0341,0.0419,0.0471,0.0612,0.0686,0.0794,0.0852,0.0864,0.0861,0.0846,0.0714,0.063,0.0376,0.0521,0.0117,0.006,-0.0022,-0.0307,-0.0311,-0.042,-0.0416,-0.0413,-0.0329,0,0,0,0,0]}]]